WELCOME TO TCFT

Voted One Of The Best Flight Schools In The USA

 

 

BECOME AN AIRLINE PILOT

Treasure Coast Flight Training is committed to serving all of your aviation needs as a full service flight academy, aircraft rental facility, and pilot shop

 

 

Questions About Becoming An Airline Pilot?

 

 

What Our Graduates Say

 

 

The training I received with Treasure Coast Flight Training prepared me to become a professional pilot

 

Nathan Meisner

Pilot - Cessna Caravan - USA

Professional yet relaxed environment. Truly an enjoyable experience to fly with TCFT

 

Sophia

Certified Flight Instructor - China

The training I needed to get me to where I am now!

 

Enderson Rafael

Pilot - Go Airlines - Brazil

Thank you TCFT for making me an airline pilot!

 

Kyle Barrett

Pilot - GoJet Airlines - USA

Current Conditions

 

Metar

 

KSUA 240555Z AUTO 11003KT 10SM SCT026 SCT049 OVC065 27/24 A2995 RMK AO2 LTG DSNT SE

 

TAF

 

TAF KSUA 240526Z 2406/2506 11008KT P6SM VCSH SCT020 BKN070 FM241400 13007KT P6SM VCSH SCT025 BKN090 TEMPO 2415/2418 3SM SHRA BKN020 FM241800 11010KT P6SM VCSH BKN035 BKN090 FM250000 13005KT P6SM VCSH SCT020 BKN040

 

 

Look No Further. Get Started Today